Weather History for Miami, FL

Change the Weather History Date:

Thursday, February 13, 2014

  Actual Average Record
Temperature  
Mean Temperature 67 °F 70 °F  
Max Temperature 76 °F 78 °F 86 °F (1982)
Min Temperature 58 °F 62 °F 35 °F (1899)
Degree Days  
Heating Degree Days 0 1  
Month to date heating degree days 0 13  
Since 1 July heating degree days 57 103  
Cooling Degree Days 2 6  
Month to date cooling degree days 142 72  
Year to date cooling degree days 294 223  
Growing Degree Days 18 (Base 50)    
Moisture  
Dew Point 59 °F    
Average Humidity 72    
Maximum Humidity 93    
Minimum Humidity 50    
Precipitation  
Precipitation 0.18 in 0.09 in 1.50 in (1947)
Month to date precipitation 0.94 1.04  
Year to date precipitation 2.85 2.66  
Snow  
Snow 0.00 in - - ()
Month to date snowfall 0.0  
Since 1 July snowfall 0.0  
Snow Depth 0.00 in    
Sea Level Pressure  
Sea Level Pressure 29.86 in    
Wind  
Wind Speed 10 mph (West)    
Max Wind Speed 22 mph    
Max Gust Speed 29 mph    
Visibility 10 miles    
Events Rain    
T = Trace of Precipitation, MM = Missing Value Source: NWS Daily Summary

Daily Weather History Graph

Daily Weather History Graph

Search for Another Location

Airport:

Trip Planner

Search our weather history database for the weather conditions in past years. The results will help you decide how hot, cold, wet, or windy it might be!

Date:

Astronomy

Feb. 13, 2014 Rise Set
Actual Time 6:57 AM EST 6:13 PM EST
Civil Twilight 6:34 AM EST 6:36 PM EST
Nautical Twilight 6:07 AM EST 7:04 PM EST
Astronomical Twilight 5:40 AM EST 7:30 PM EST
Moon 5:20 PM EST (2/13) 5:48 AM EST (2/13)
Length of Visible Light 12h 02m
Length of Day
11h 15m
Waxing Gibbous, 98% of the Moon is Illuminated
Feb 13
Waxing Gibbous
Feb 14
Full
Feb 22
Last Quarter
Mar 1
New
Mar 8
First Quarter

Hourly Weather History & Observations

Time (EST) Temp. Dew Point Humidity Pressure Visibility Wind Dir Wind Speed Gust Speed Precip Events Conditions
12:53 AM 66.0 °F 64.0 °F 93% 29.83 in 10.0 mi SSW 4.6 mph - 0.01 in   Scattered Clouds
1:53 AM 66.9 °F 64.0 °F 90% 29.81 in 10.0 mi SW 6.9 mph - N/A   Mostly Cloudy
2:53 AM 66.9 °F 63.0 °F 87% 29.81 in 10.0 mi SW 6.9 mph - N/A   Mostly Cloudy
3:53 AM 68.0 °F 64.9 °F 90% 29.79 in 10.0 mi SW 6.9 mph - N/A   Mostly Cloudy
4:53 AM 69.1 °F 64.9 °F 87% 29.78 in 10.0 mi SW 8.1 mph - N/A   Mostly Cloudy
5:53 AM 69.1 °F 66.0 °F 90% 29.80 in 10.0 mi SW 6.9 mph - N/A   Mostly Cloudy
6:53 AM 70.0 °F 66.0 °F 87% 29.82 in 10.0 mi SSW 4.6 mph - N/A   Mostly Cloudy
7:31 AM 71.6 °F 66.2 °F 83% 29.81 in 10.0 mi SSW 8.1 mph - N/A   Mostly Cloudy
7:53 AM 72.0 °F 66.9 °F 84% 29.82 in 10.0 mi SSW 9.2 mph - N/A   Mostly Cloudy
8:21 AM 71.6 °F 66.2 °F 83% 29.83 in 1.5 mi West 11.5 mph 21.9 mph 0.07 in Rain Heavy Rain
8:30 AM 69.8 °F 66.2 °F 88% 29.84 in 3.0 mi West 12.7 mph - 0.16 in Rain Rain
8:53 AM 69.1 °F 64.9 °F 87% 29.85 in 9.0 mi WNW 15.0 mph 27.6 mph 0.17 in Rain Light Rain
9:11 AM 68.0 °F 64.4 °F 88% 29.86 in 10.0 mi NW 12.7 mph 23.0 mph 0.00 in   Overcast
9:46 AM 66.2 °F 62.6 °F 88% 29.88 in 10.0 mi WNW 12.7 mph 21.9 mph 0.00 in   Overcast
9:53 AM 66.9 °F 62.1 °F 84% 29.89 in 10.0 mi WNW 11.5 mph 18.4 mph 0.00 in   Overcast
10:46 AM 69.8 °F 60.8 °F 73% 29.88 in 10.0 mi WNW 10.4 mph 19.6 mph N/A   Mostly Cloudy
10:53 AM 70.0 °F 60.1 °F 71% 29.89 in 10.0 mi WNW 15.0 mph 21.9 mph N/A   Mostly Cloudy
11:22 AM 69.8 °F 59.0 °F 68% 29.88 in 10.0 mi WNW 13.8 mph 23.0 mph N/A   Overcast
11:37 AM 69.8 °F 57.2 °F 64% 29.88 in 10.0 mi WNW 10.4 mph 21.9 mph N/A   Overcast
11:53 AM 70.0 °F 57.9 °F 65% 29.88 in 10.0 mi WNW 10.4 mph 23.0 mph N/A   Mostly Cloudy
12:53 PM 73.9 °F 57.0 °F 55% 29.84 in 10.0 mi West 12.7 mph 24.2 mph N/A   Scattered Clouds
1:53 PM 75.0 °F 55.9 °F 51% 29.82 in 10.0 mi West 12.7 mph 24.2 mph N/A   Partly Cloudy
2:53 PM 75.9 °F 55.9 °F 50% 29.81 in 10.0 mi West 15.0 mph 23.0 mph N/A   Partly Cloudy
3:53 PM 75.0 °F 55.0 °F 50% 29.82 in 10.0 mi WNW 12.7 mph 28.8 mph N/A   Scattered Clouds
4:53 PM 72.0 °F 53.1 °F 51% 29.85 in 10.0 mi West 16.1 mph 25.3 mph N/A   Partly Cloudy
5:53 PM 69.1 °F 52.0 °F 54% 29.88 in 10.0 mi West 12.7 mph 20.7 mph N/A   Partly Cloudy
6:53 PM 66.0 °F 51.1 °F 59% 29.90 in 10.0 mi NW 10.4 mph - N/A   Clear
7:53 PM 64.0 °F 50.0 °F 60% 29.94 in 10.0 mi NW 9.2 mph - N/A   Clear
8:53 PM 62.1 °F 48.9 °F 62% 29.96 in 10.0 mi NW 9.2 mph - N/A   Clear
9:53 PM 61.0 °F 48.9 °F 64% 29.98 in 10.0 mi NW 4.6 mph - N/A   Clear
10:53 PM 60.1 °F 48.9 °F 67% 30.00 in 10.0 mi NW 6.9 mph - N/A   Clear
11:53 PM 57.9 °F 48.9 °F 72% 29.99 in 10.0 mi NW 10.4 mph - N/A   Clear